Showing default

NAVSPASUR ROD 1, 1515

Orbit data source: Space-Track

NAVSPASUR ROD 1, 1515 is a payload satellite owned by NRL (US) in LEO that was launched on Fri, 13 Aug 1965 UTC via a THOR ABLESTAR launch vehicle from the Air Force Western Test Range (AFWTR). Payload-class satellites include a variety of spacecraft equipped with specific instruments for various scientific and technological missions. These include communications satellites like Starlink; space stations such as the ISS; scientific satellites like the Hubble; Earth observation satellites from companies like Planet Labs, Umbra, and HawkEye 360; GPS; miniature CubeSats for education and research; and military/defense satellites.

Loading next visibility...
Identifier
1515, 1965-065G
Orbit
LEO
Country
Flag of USUS
Related business
Manufacturer
NRL
Mission
Spacecraft
Bus & Motor
LONG ROD, Unknown motor
Mass
3 kg wet, 3 kg dry
Launch date (UTC)
1965-08-13 (61 years ago)
Launch vehicle
THOR ABLESTAR
Launch site
Air Force Western Test Range (AFWTR)
Object type
Payload
Rocket body
Debris
Shape & HBR
Unknown
Radar Cross Section
Small (<0.1 m²)

Expand to show TLE details & history
Last TLE update: 10 hours ago

TLE from 10 hours ago
0 NAVSPASUR ROD 1
1 01515U 65065G   26133.22988705  .00000372  00000-0  55455-3 0  9999
2 01515  90.0222 214.1665 0062016  58.7935 326.5505 13.50994267975605
Epoch: 2026-05-13T05:31Z
TLE epoch observation values (Epoch: 2026-05-13T05:31:02.241Z)
Latitude
24.97584°
Longitude
-99.59602°
Altitude
1,033.229 km
Speed
7.356 km/s
True Right ascension
14h 16m 37s
True Declination
24° 50' 58"
Sunlit
Object was in full shadow at epoch
Visualization orbit readout
Latitude
Unknown
Longitude
Unknown
Altitude
Unknown
Speed
Unknown
Apparent Right ascension
Unknown
Apparent Declination
Unknown
Sunlit
N/A
Visualization observer readout
Local Sidereal Time
00:07:01
Azimuth
Unknown
Elevation
Unknown
Doppler factor
Unknown
Orbital elements
Apogee altitude
1,111.814 km
Perigee altitude
1,019.487 km
Semi-major axis
7,443.788 km
Eccentricity
0.0062
Inclination
90.0222°
RAAN
214.1665°
Arg. of periapsis
58.7935°
True anomaly
326.15624°
Mean anomaly
326.5505°
Eccentric anomaly
326.35363°
Mean motion
3.3795 °/min
Orbital period
106.52 mins
BSTAR
0.00055455
Loading maneuver chart data...
Computing Atmospheric mass density...

Documentation

Showing up to 5 results
|